Location: Darmstadt
(49.8706°N, 8.6494°E)
Time: 06:04:29
(UTC+01:00)

Meteor 2-3 Rocket - Pass Details

Date: 31 October 2020
Orbit: 843 x 884 km, 81.2° (Epoch: 03 December)

Event Time Altitude Azimuth Distance (km) Brightness Sun altitude
Rises 18:54:53 0° 351° (N) 3,462 7.0 -18.3°
Reaches altitude 10° 18:57:26 10° 358° (N) 2,527 6.2 -18.7°
Maximum altitude 19:02:57 45° 71° (ENE) 1,177 4.0 -19.6°
Enters shadow 19:04:57 33° 118° (ESE) 1,436 4.4 -20.0°
